Total_Precipitation_Accumulation
0.38 0.43 0.45 0.47 0.53 0.51 0.48 0.50 0.47 0.44 0.42 0.40 0.36 0.32 0.26 0.23 0.24 0.27 0.29 0.33 0.38 0.46 0.54 0.53 0.53 0.63 0.71 0.66 0.64 0.64 0.69 0.75 0.74 0.71 0.84 0.88 0.77 0.59 0.53 0.55 0.56 0.57 0.47
0.34 0.40 0.41 0.43 0.47 0.48 0.44 0.45 0.46 0.49 0.49 0.45 0.40 0.38 0.31 0.27 0.28 0.30 0.29 0.32 0.39 0.48 0.62 0.77 0.78 0.73 0.71 0.69 0.68 0.68 0.73 0.85 0.85 0.77 0.83 0.91 0.87 0.77 0.68 0.57 0.48 0.50 0.54
0.33 0.40 0.44 0.40 0.40 0.44 0.46 0.43 0.41 0.45 0.51 0.54 0.50 0.46 0.41 0.40 0.40 0.37 0.35 0.36 0.37 0.41 0.52 0.74 0.93 1.07 0.98 0.80 0.70 0.67 0.73 0.87 0.98 0.91 0.90 1.04 1.06 0.97 0.83 0.64 0.52 0.50 0.46
0.37 0.41 0.45 0.43 0.42 0.45 0.50 0.53 0.51 0.49 0.54 0.61 0.62 0.61 0.56 0.51 0.47 0.44 0.48 0.48 0.44 0.42 0.46 0.54 0.65 0.86 1.02 1.07 0.94 0.80 0.78 0.85 0.95 0.96 1.05 1.28 1.33 1.21 0.96 0.77 0.67 0.57 0.50
0.54 0.61 0.65 0.62 0.60 0.61 0.63 0.63 0.65 0.65 0.64 0.73 0.76 0.74 0.71 0.66 0.56 0.55 0.61 0.54 0.56 0.54 0.52 0.52 0.48 0.54 0.67 0.82 0.91 0.97 0.95 0.88 0.93 0.99 1.22 1.63 1.67 1.43 1.05 0.86 0.78 0.74 0.64
0.79 0.90 0.91 0.92 0.92 0.90 0.87 0.81 0.84 0.90 0.97 0.98 0.95 0.92 0.87 0.73 0.68 0.64 0.62 0.59 0.61 0.62 0.61 0.58 0.51 0.46 0.47 0.55 0.65 0.78 0.92 0.95 0.95 1.02 1.22 1.52 1.68 1.57 1.31 1.10 0.87 0.73 0.66
0.80 0.89 0.96 0.98 0.99 1.05 1.08 1.07 1.06 1.10 1.11 1.12 1.11 1.08 1.02 0.98 0.85 0.67 0.59 0.58 0.58 0.62 0.68 0.71 0.54 0.40 0.46 0.49 0.56 0.59 0.65 0.75 0.86 0.94 1.08 1.28 1.56 1.69 1.53 1.15 0.98 0.88 0.70
0.91 0.95 1.03 1.08 1.12 1.15 1.12 1.07 1.01 1.01 0.98 0.95 0.93 0.92 0.96 0.91 0.81 0.63 0.54 0.51 0.55 0.58 0.62 0.64 0.61 0.49 0.48 0.51 0.54 0.53 0.50 0.50 0.56 0.67 0.79 1.01 1.29 1.61 1.77 1.52 1.32 1.15 0.94
1.01 1.07 1.15 1.21 1.24 1.15 1.06 1.04 0.96 0.91 0.82 0.74 0.70 0.72 0.78 0.81 0.77 0.62 0.59 0.54 0.55 0.55 0.55 0.58 0.60 0.54 0.47 0.39 0.43 0.44 0.43 0.43 0.42 0.47 0.57 0.75 1.00 1.31 1.65 1.77 1.48 1.14 0.99
0.97 0.99 1.04 1.11 1.23 1.25 1.14 1.09 1.04 1.01 0.92 0.86 0.78 0.75 0.75 0.83 0.82 0.65 0.60 0.56 0.59 0.61 0.71 0.73 0.67 0.57 0.49 0.36 0.37 0.42 0.40 0.37 0.43 0.44 0.45 0.53 0.67 0.92 1.26 1.45 1.45 1.16 0.92
0.77 0.75 0.81 0.92 1.00 1.03 1.05 1.05 1.09 1.08 1.02 0.91 0.78 0.71 0.70 0.76 0.82 0.68 0.58 0.57 0.61 0.69 0.77 0.85 0.81 0.66 0.48 0.37 0.34 0.36 0.33 0.37 0.44 0.48 0.49 0.53 0.66 0.83 1.00 1.23 1.36 1.27 1.02
0.80 0.82 0.86 0.90 0.87 0.82 0.87 0.91 0.96 0.99 0.94 0.84 0.72 0.65 0.64 0.61 0.59 0.60 0.48 0.44 0.49 0.61 0.72 0.88 0.91 0.75 0.55 0.41 0.33 0.29 0.26 0.27 0.33 0.39 0.42 0.44 0.52 0.65 0.83 1.09 1.31 1.32 1.17
0.90 0.91 0.92 0.91 0.89 0.87 0.85 0.80 0.77 0.77 0.70 0.61 0.52 0.53 0.56 0.55 0.48 0.41 0.34 0.27 0.31 0.47 0.62 0.85 0.95 0.82 0.68 0.54 0.43 0.38 0.32 0.28 0.31 0.33 0.31 0.32 0.37 0.49 0.70 1.04 1.38 1.51 1.40
0.86 0.79 0.71 0.70 0.69 0.73 0.76 0.72 0.71 0.67 0.61 0.54 0.48 0.51 0.51 0.50 0.45 0.43 0.40 0.31 0.30 0.42 0.50 0.63 0.78 0.84 0.77 0.70 0.60 0.48 0.39 0.35 0.34 0.35 0.35 0.38 0.46 0.58 0.71 0.86 1.17 1.41 1.43
0.81 0.76 0.70 0.65 0.63 0.63 0.66 0.67 0.62 0.60 0.51 0.47 0.46 0.51 0.49 0.46 0.39 0.34 0.39 0.41 0.41 0.46 0.47 0.60 0.76 0.89 0.91 0.88 0.85 0.74 0.63 0.56 0.49 0.47 0.53 0.54 0.59 0.66 0.69 0.78 0.99 1.19 1.20
0.74 0.66 0.63 0.61 0.62 0.63 0.61 0.62 0.55 0.44 0.39 0.36 0.36 0.39 0.41 0.35 0.26 0.19 0.21 0.26 0.27 0.30 0.35 0.53 0.70 0.87 1.00 1.05 1.08 1.02 0.92 0.82 0.74 0.71 0.73 0.71 0.70 0.74 0.76 0.78 0.91 1.06 1.07
0.67 0.62 0.57 0.55 0.58 0.57 0.54 0.55 0.59 0.51 0.34 0.28 0.29 0.29 0.30 0.23 0.17 0.15 0.17 0.20 0.20 0.19 0.24 0.42 0.58 0.73 0.91 1.06 1.09 1.06 0.98 0.97 0.97 0.96 0.95 0.91 0.85 0.84 0.87 0.85 0.86 0.98 1.05
0.60 0.59 0.56 0.54 0.54 0.51 0.48 0.49 0.51 0.56 0.51 0.39 0.29 0.22 0.21 0.18 0.20 0.22 0.20 0.21 0.20 0.19 0.23 0.39 0.52 0.66 0.81 0.99 1.05 1.05 1.07 1.10 1.10 1.06 1.07 1.07 1.04 0.98 0.97 0.95 0.91 0.92 1.01
0.46 0.42 0.39 0.38 0.39 0.40 0.39 0.40 0.41 0.45 0.49 0.54 0.44 0.27 0.23 0.21 0.28 0.36 0.28 0.29 0.32 0.31 0.32 0.38 0.46 0.58 0.75 0.93 1.07 1.12 1.14 1.14 1.13 1.14 1.14 1.15 1.17 1.11 1.01 1.00 1.04 1.02 1.00
0.30 0.29 0.23 0.19 0.22 0.28 0.33 0.35 0.35 0.39 0.45 0.55 0.51 0.35 0.29 0.32 0.47 0.58 0.46 0.47 0.50 0.47 0.48 0.52 0.55 0.62 0.79 0.96 1.09 1.18 1.23 1.20 1.16 1.17 1.18 1.18 1.18 1.16 1.06 1.05 1.13 1.11 0.99
0.22 0.19 0.16 0.12 0.17 0.25 0.30 0.31 0.32 0.39 0.47 0.57 0.53 0.35 0.29 0.39 0.64 0.75 0.70 0.69 0.67 0.64 0.64 0.61 0.56 0.60 0.75 0.92 1.02 1.13 1.23 1.21 1.15 1.13 1.19 1.24 1.17 1.12 1.07 1.08 1.12 1.17 1.12
0.20 0.18 0.17 0.15 0.22 0.27 0.26 0.32 0.42 0.51 0.56 0.61 0.56 0.42 0.40 0.53 0.74 0.81 0.76 0.75 0.75 0.72 0.68 0.65 0.61 0.64 0.75 0.89 0.96 1.06 1.20 1.21 1.18 1.16 1.22 1.30 1.25 1.15 1.11 1.09 1.10 1.18 1.23
0.23 0.22 0.19 0.21 0.28 0.27 0.30 0.38 0.50 0.56 0.58 0.61 0.60 0.59 0.61 0.69 0.75 0.79 0.77 0.73 0.71 0.73 0.75 0.77 0.78 0.77 0.83 0.93 0.98 1.06 1.20 1.20 1.16 1.17 1.22 1.25 1.23 1.18 1.16 1.12 1.10 1.16 1.20
0.19 0.22 0.21 0.20 0.22 0.27 0.33 0.37 0.42 0.47 0.49 0.51 0.54 0.57 0.59 0.63 0.67 0.69 0.69 0.69 0.71 0.73 0.76 0.83 0.85 0.86 0.89 0.93 0.95 0.96 1.06 1.05 0.98 0.96 1.01 1.07 1.09 1.09 1.09 1.07 1.03 1.05 1.10
0.20 0.22 0.23 0.23 0.22 0.25 0.30 0.35 0.41 0.46 0.50 0.50 0.51 0.54 0.57 0.57 0.60 0.65 0.69 0.70 0.70 0.71 0.71 0.72 0.76 0.80 0.78 0.74 0.77 0.80 0.84 0.79 0.74 0.74 0.84 0.94 0.95 0.94 0.94 0.92 0.92 0.97 1.04
0.21 0.25 0.28 0.32 0.31 0.30 0.33 0.40 0.46 0.46 0.49 0.48 0.52 0.55 0.60 0.62 0.62 0.66 0.67 0.67 0.66 0.67 0.65 0.67 0.69 0.65 0.64 0.63 0.59 0.60 0.58 0.55 0.56 0.60 0.65 0.74 0.81 0.81 0.84 0.86 0.84 0.89 0.95